WXM80 ListenWXM80 Stop

You find our weather info also at:

UK Metoffice

WeatherCloud

Weather Underground

Northeastern Weather Network

AWEKAS

Citizen Weather Observer Program (CWOP)

HAMweather, WeatherForYou, PWS Weather


Weather Underground History page Text

Daily Summary for April 27, 2017 Units:  Metric    English   Both
« Previous Day
Next Day »
Daily Weekly Monthly Yearly Custom
  High: Low: Average:
Temperature: 19.3 °C 12.1 °C 15.4 °C
Dew Point: 16.9 °C 11.6 °C 14.4 °C
Humidity: 99 % 79 % 94 %
Wind Speed: 11.1 km/h 0 km/h 1.6 km/h
Wind Gust: 22.5 km/h - -
Wind:- - SE
Pressure: 1012.4 hPa 1009 hPa -
Precipitation: 0.25 mm    
Historical Graphs
 
 
Tabular Data for April 27, 2017
Time Temperature Dew Point Pressure Wind Wind Speed Wind Gust Humidity Rainfall Rate (Hourly)
00:01 12.1 °C 11.6 °C 1009.4 hPa Calm     97 % 0 mm
00:06 12.1 °C 11.6 °C 1009.4 hPa Calm     97 % 0 mm
00:11 12.1 °C 11.6 °C 1009.4 hPa Calm     97 % 0 mm
00:16 12.1 °C 11.6 °C 1009.7 hPa Calm     97 % 0 mm
00:21 12.1 °C 11.6 °C 1009.4 hPa Calm     97 % 0 mm
00:26 12.1 °C 11.6 °C 1009.4 hPa Calm     97 % 0 mm
00:31 12.1 °C 11.6 °C 1009.4 hPa Calm     97 % 0 mm
00:36 12.1 °C 11.6 °C 1009.4 hPa Calm     97 % 0 mm
00:41 12.1 °C 11.6 °C 1009 hPa Calm     97 % 0 mm
00:46 12.1 °C 11.6 °C 1009 hPa Calm     97 % 0 mm
00:51 12.1 °C 11.6 °C 1009 hPa Calm     97 % 0 mm
00:56 12.1 °C 11.6 °C 1009 hPa Calm     97 % 0 mm
01:02 12.1 °C 11.6 °C 1009 hPa Calm     97 % 0 mm
01:06 12.1 °C 11.7 °C 1009 hPa Calm     97 % 0 mm
01:12 12.2 °C 11.7 °C 1009 hPa Calm     97 % 0 mm
01:17 12.3 °C 11.9 °C 1009 hPa Calm     98 % 0 mm
01:22 12.4 °C 12 °C 1009.4 hPa WNW 1.9 km/h 5.6 km/h 97 % 0 mm
01:27 12.5 °C 12.2 °C 1009.4 hPa WNW 0.5 km/h 3.7 km/h 98 % 0 mm
01:32 12.6 °C 12.2 °C 1009.4 hPa WNW 1.3 km/h 3.7 km/h 98 % 0 mm
01:37 12.6 °C 12.3 °C 1009.4 hPa WNW 0.3 km/h 3.7 km/h 98 % 0 mm
01:42 12.7 °C 12.3 °C 1009.4 hPa WNW 1.6 km/h 3.7 km/h 98 % 0 mm
01:47 12.7 °C 12.3 °C 1009.7 hPa WNW 2.9 km/h 5.6 km/h 98 % 0 mm
01:52 12.7 °C 12.4 °C 1009.4 hPa WNW 1.8 km/h 3.7 km/h 98 % 0 mm
01:57 12.8 °C 12.4 °C 1009.7 hPa WNW 0.5 km/h 1.9 km/h 98 % 0 mm
02:02 12.8 °C 12.4 °C 1009.4 hPa Calm   3.7 km/h 98 % 0 mm
02:08 12.8 °C 12.5 °C 1009.4 hPa WNW 2.7 km/h 5.6 km/h 98 % 0 mm
02:13 12.8 °C 12.5 °C 1009.4 hPa WNW 2.7 km/h 5.6 km/h 98 % 0 mm
02:18 12.8 °C 12.5 °C 1009.4 hPa Calm   3.7 km/h 98 % 0 mm
02:23 12.9 °C 12.6 °C 1009.7 hPa Calm     98 % 0 mm
02:28 12.9 °C 12.6 °C 1009.7 hPa WNW 0.2 km/h 1.9 km/h 98 % 0 mm
02:31 12.9 °C 12.6 °C 1009.7 hPa Calm   1.9 km/h 98 % 0 mm
02:36 12.9 °C 12.6 °C 1009.7 hPa Calm     98 % 0 mm
02:41 12.9 °C 12.6 °C 1009.7 hPa Calm     98 % 0 mm
02:46 12.9 °C 12.6 °C 1009.4 hPa Calm     98 % 0 mm
02:51 12.9 °C 12.6 °C 1009.7 hPa Calm     98 % 0 mm
02:57 12.9 °C 12.6 °C 1009.7 hPa Calm     98 % 0 mm
03:02 13 °C 12.7 °C 1009.7 hPa Calm     98 % 0 mm
03:07 13.1 °C 12.7 °C 1009.7 hPa Calm     98 % 0 mm
03:12 13.1 °C 12.7 °C 1010 hPa Calm     98 % 0 mm
03:17 13.1 °C 12.7 °C 1010 hPa Calm     98 % 0 mm
03:22 13.1 °C 12.7 °C 1010 hPa Calm     98 % 0 mm
03:27 13.1 °C 12.7 °C 1010 hPa Calm     98 % 0 mm
03:28 13.1 °C 12.7 °C 1010 hPa Calm     98 % 0 mm
03:33 13.1 °C 12.7 °C 1009.7 hPa Calm     98 % 0 mm
03:38 13.1 °C 12.8 °C 1010 hPa Calm     98 % 0 mm
03:43 13.1 °C 12.8 °C 1010 hPa Calm     98 % 0 mm
03:48 13.1 °C 12.8 °C 1009.7 hPa Calm     98 % 0 mm
03:53 13.2 °C 12.8 °C 1009.7 hPa Calm     98 % 0 mm
03:58 13.2 °C 12.8 °C 1009.7 hPa Calm     98 % 0 mm
04:03 13.2 °C 12.8 °C 1009.7 hPa Calm     98 % 0 mm
04:08 13.2 °C 12.8 °C 1009.7 hPa Calm     98 % 0 mm
04:14 13.2 °C 12.8 °C 1009.7 hPa Calm     98 % 0 mm
04:19 13.2 °C 12.8 °C 1009.7 hPa Calm     98 % 0 mm
04:24 13.2 °C 12.8 °C 1009.7 hPa Calm     98 % 0 mm
04:29 13.2 °C 12.8 °C 1009.7 hPa Calm     98 % 0 mm
04:34 13.2 °C 12.9 °C 1010 hPa Calm     98 % 0 mm
04:39 13.2 °C 12.9 °C 1010 hPa Calm     98 % 0 mm
04:44 13.2 °C 12.9 °C 1010 hPa Calm     98 % 0 mm
04:49 13.2 °C 12.9 °C 1010 hPa Calm     98 % 0 mm
04:54 13.2 °C 12.9 °C 1010 hPa Calm     98 % 0 mm
04:59 13.3 °C 12.9 °C 1010 hPa Calm     98 % 0 mm
05:04 13.3 °C 12.9 °C 1010 hPa Calm     98 % 0 mm
05:10 13.3 °C 12.9 °C 1010 hPa Calm     98 % 0 mm
05:15 13.3 °C 13 °C 1010 hPa Calm     98 % 0 mm
05:20 13.3 °C 13 °C 1010 hPa Calm     98 % 0 mm
05:25 13.3 °C 13 °C 1010 hPa Calm     98 % 0 mm
05:30 13.3 °C 13 °C 1010 hPa Calm     98 % 0 mm
05:35 13.3 °C 13 °C 1010.4 hPa Calm     98 % 0 mm
05:40 13.3 °C 13 °C 1010.4 hPa Calm     98 % 0 mm
05:45 13.3 °C 12.9 °C 1010.4 hPa Calm     98 % 0 mm
05:50 13.3 °C 12.9 °C 1010.4 hPa Calm     98 % 0 mm
05:51 13.3 °C 12.9 °C 1010.4 hPa Calm     98 % 0 mm
05:56 13.2 °C 12.9 °C 1010.4 hPa Calm     98 % 0 mm
06:02 13.2 °C 12.9 °C 1010.4 hPa Calm     98 % 0 mm
06:07 13.2 °C 12.8 °C 1010.7 hPa Calm     98 % 0 mm
06:12 13.2 °C 12.8 °C 1010.7 hPa Calm     98 % 0 mm
06:17 13.2 °C 12.8 °C 1010.7 hPa Calm     98 % 0 mm
06:22 13.2 °C 12.8 °C 1010.7 hPa Calm     98 % 0 mm
06:27 13.1 °C 12.8 °C 1010.7 hPa Calm     98 % 0 mm
06:32 13.1 °C 12.8 °C 1010.7 hPa Calm     98 % 0 mm
06:37 13.1 °C 12.8 °C 1010.7 hPa Calm     98 % 0 mm
06:42 13.2 °C 12.8 °C 1011.1 hPa Calm     98 % 0 mm
06:47 13.2 °C 12.8 °C 1011.1 hPa Calm     98 % 0 mm
06:52 13.2 °C 12.8 °C 1011.1 hPa Calm     98 % 0 mm
06:57 13.2 °C 12.8 °C 1011.4 hPa Calm     98 % 0 mm
07:03 13.2 °C 12.8 °C 1011.4 hPa Calm     98 % 0 mm
07:08 13.2 °C 12.9 °C 1011.4 hPa Calm     98 % 0 mm
07:13 13.2 °C 12.9 °C 1011.4 hPa Calm     98 % 0 mm
07:18 13.3 °C 12.9 °C 1011.4 hPa Calm     98 % 0 mm
07:23 13.3 °C 13 °C 1011.4 hPa Calm     98 % 0 mm
07:28 13.4 °C 13.1 °C 1011.4 hPa Calm     98 % 0 mm
07:33 13.6 °C 13.2 °C 1011.7 hPa Calm     98 % 0 mm
07:38 13.7 °C 13.4 °C 1011.7 hPa Calm     98 % 0 mm
07:43 13.8 °C 13.7 °C 1011.7 hPa Calm     99 % 0 mm
07:48 13.9 °C 13.6 °C 1011.7 hPa Calm     98 % 0 mm
07:53 14.1 °C 13.9 °C 1011.7 hPa Calm     99 % 0 mm
07:59 14.2 °C 14.1 °C 1011.7 hPa Calm     99 % 0 mm
08:04 14.3 °C 14 °C 1011.7 hPa Calm     98 % 0 mm
08:09 14.4 °C 14.3 °C 1011.7 hPa Calm     99 % 0 mm
08:14 14.5 °C 14.3 °C 1011.7 hPa Calm     99 % 0 mm
08:19 14.6 °C 14.3 °C 1012.1 hPa Calm     98 % 0 mm
08:24 14.6 °C 14.3 °C 1012.1 hPa Calm     98 % 0 mm
08:29 14.6 °C 14.3 °C 1012.1 hPa Calm     98 % 0 mm
08:34 14.7 °C 14.3 °C 1012.1 hPa Calm     98 % 0 mm
08:39 14.7 °C 14.3 °C 1012.1 hPa Calm     98 % 0 mm
08:45 14.6 °C 14.3 °C 1012.1 hPa Calm     98 % 0 mm
08:50 14.6 °C 14.2 °C 1012.1 hPa Calm     98 % 0 mm
08:52 14.6 °C 14.3 °C 1011.7 hPa Calm     98 % 0 mm
08:57 14.6 °C 14.3 °C 1012.1 hPa Calm     98 % 0 mm
09:02 14.7 °C 14.3 °C 1012.1 hPa Calm     98 % 0 mm
09:07 14.7 °C 14.4 °C 1012.1 hPa Calm     98 % 0 mm
09:12 14.8 °C 14.6 °C 1012.1 hPa Calm     99 % 0 mm
09:17 14.8 °C 14.7 °C 1012.4 hPa Calm     99 % 0 mm
09:23 14.9 °C 14.7 °C 1012.4 hPa Calm     99 % 0 mm
09:28 14.9 °C 14.8 °C 1012.4 hPa Calm     99 % 0 mm
09:33 14.9 °C 14.6 °C 1012.4 hPa Calm     98 % 0 mm
09:38 15 °C 14.7 °C 1012.4 hPa Calm     98 % 0 mm
09:43 15.1 °C 14.7 °C 1012.4 hPa Calm     98 % 0 mm
09:48 15.1 °C 14.9 °C 1012.4 hPa Calm     99 % 0 mm
09:53 15.2 °C 15 °C 1012.4 hPa Calm     99 % 0 mm
09:58 15.3 °C 15.1 °C 1012.4 hPa Calm     99 % 0 mm
10:03 15.3 °C 15 °C 1012.4 hPa Calm     98 % 0 mm
10:09 15.4 °C 15.1 °C 1012.1 hPa WNW 0.2 km/h   98 % 0 mm
10:13 15.6 °C 15.4 °C 1012.1 hPa WNW 1.1 km/h 1.9 km/h 99 % 0 mm
10:14 15.6 °C 15.4 °C 1012.1 hPa WNW 0.2 km/h 3.7 km/h 99 % 0 mm
10:20 15.8 °C 15.6 °C 1012.1 hPa Calm   5.6 km/h 99 % 0 mm
10:25 15.8 °C 15.7 °C 1012.4 hPa Calm     99 % 0 mm
10:30 15.9 °C 15.7 °C 1012.4 hPa WSW 2.1 km/h 3.7 km/h 99 % 0 mm
10:35 15.9 °C 15.8 °C 1012.4 hPa Calm   1.9 km/h 99 % 0 mm
10:40 16 °C 15.8 °C 1012.4 hPa WSW 0.5 km/h 1.9 km/h 99 % 0 mm
10:45 16.1 °C 15.7 °C 1012.4 hPa Calm     98 % 0 mm
10:50 16.2 °C 16 °C 1012.4 hPa Calm     99 % 0 mm
10:55 16.2 °C 16.1 °C 1012.4 hPa Calm   1.9 km/h 99 % 0 mm
11:00 16.3 °C 16.2 °C 1012.1 hPa WSW 0.2 km/h 1.9 km/h 99 % 0 mm
11:05 16.5 °C 16.3 °C 1012.1 hPa Calm   1.9 km/h 99 % 0 mm
11:10 16.8 °C 16.7 °C 1012.1 hPa Calm     99 % 0 mm
11:11 16.9 °C 16.7 °C 1012.1 hPa Calm     99 % 0 mm
11:16 17.1 °C 16.9 °C 1011.7 hPa WSW 0.2 km/h 3.7 km/h 99 % 0 mm
11:21 17.1 °C 16.9 °C 1012.1 hPa NW 3.2 km/h 6.4 km/h 99 % 0 mm
11:26 16.9 °C 16.6 °C 1012.1 hPa NNW 1 km/h 5.6 km/h 98 % 0 mm
11:27 16.9 °C 16.6 °C 1012.1 hPa NNW 0.2 km/h 1.9 km/h 98 % 0 mm
11:32 17 °C 16.7 °C 1011.7 hPa ENE 3.9 km/h 6.4 km/h 98 % 0 mm
11:37 17 °C 16.7 °C 1011.7 hPa NNE 0.6 km/h 3.7 km/h 98 % 0 mm
11:42 17.1 °C 16.8 °C 1011.7 hPa ENE 2.4 km/h 5.6 km/h 98 % 0 mm
11:48 17.1 °C 16.6 °C 1011.7 hPa ENE 4.8 km/h 7.4 km/h 97 % 0 mm
11:53 17.1 °C 16.6 °C 1012.1 hPa ENE 3.4 km/h 5.6 km/h 97 % 0 mm
11:58 17.1 °C 16.4 °C 1012.1 hPa ENE 3.4 km/h 5.6 km/h 96 % 0.25 mm
12:03 17.2 °C 16.5 °C 1012.1 hPa NNE 2.4 km/h 8 km/h 96 % 0.25 mm
12:08 17.2 °C 16.3 °C 1012.1 hPa Calm   1.9 km/h 95 % 0.25 mm
12:13 17.2 °C 16.4 °C 1012.1 hPa NNE 0.6 km/h 3.7 km/h 95 % 0.25 mm
12:18 17.2 °C 16.2 °C 1012.1 hPa NNE 0.3 km/h 3.2 km/h 94 % 0.25 mm
12:23 17.1 °C 15.9 °C 1012.1 hPa NNE 0.2 km/h 3.7 km/h 93 % 0.25 mm
12:28 17.2 °C 16.2 °C 1012.1 hPa NNE 1.1 km/h 5.6 km/h 94 % 0.25 mm
12:33 17.3 °C 16.3 °C 1012.1 hPa NNE 0.5 km/h 3.7 km/h 94 % 0.25 mm
12:38 17.4 °C 16.2 °C 1012.1 hPa ENE 2.4 km/h 3.7 km/h 93 % 0.25 mm
12:43 17.2 °C 15.7 °C 1012.1 hPa NE 4 km/h 5.6 km/h 91 % 0.25 mm
12:48 17.1 °C 15.4 °C 1012.1 hPa NE 1.9 km/h 4.8 km/h 90 % 0.25 mm
12:53 17.1 °C 15.6 °C 1012.1 hPa Calm   1.9 km/h 91 % 0.25 mm
12:58 16.9 °C 15.4 °C 1012.1 hPa NNE 1 km/h 3.7 km/h 91 % 0 mm
13:04 17 °C 15.8 °C 1012.1 hPa NNE 0.8 km/h 5.6 km/h 93 % 0 mm
13:09 17 °C 15.7 °C 1012.1 hPa NNE 0.2 km/h 1.9 km/h 92 % 0 mm
13:11 17.1 °C 15.7 °C 1012.1 hPa NNE 0.5 km/h 1.9 km/h 92 % 0 mm
13:16 16.8 °C 15.2 °C 1012.1 hPa ENE 4.8 km/h 5.6 km/h 90 % 0 mm
13:21 16.6 °C 14.9 °C 1012.1 hPa ENE 1 km/h 1.9 km/h 90 % 0 mm
13:26 16.5 °C 14.8 °C 1011.7 hPa ENE 1.1 km/h 1.9 km/h 90 % 0 mm
13:31 16.6 °C 15.3 °C 1011.7 hPa ENE 1.9 km/h 5.6 km/h 92 % 0 mm
13:36 16.8 °C 15.4 °C 1011.7 hPa ENE 3.5 km/h 5.6 km/h 92 % 0 mm
13:41 16.7 °C 15 °C 1011.7 hPa ENE 6.6 km/h 7.4 km/h 90 % 0 mm
13:46 16.4 °C 14.6 °C 1011.7 hPa NE 5 km/h 7.4 km/h 89 % 0 mm
13:51 16.4 °C 14.9 °C 1011.7 hPa ENE 3.2 km/h 5.6 km/h 91 % 0 mm
13:57 16.3 °C 14.6 °C 1011.7 hPa ENE 2.3 km/h 5.6 km/h 90 % 0 mm
14:02 16.3 °C 14.8 °C 1011.7 hPa ENE 3.2 km/h 7.4 km/h 91 % 0 mm
14:07 16.4 °C 15.1 °C 1011.7 hPa NNE 4.8 km/h 7.4 km/h 92 % 0 mm
14:12 16.7 °C 15.6 °C 1011.7 hPa ENE 2.4 km/h 3.7 km/h 93 % 0 mm
14:17 16.8 °C 15.5 °C 1011.7 hPa ENE 4.8 km/h 8 km/h 92 % 0 mm
14:22 16.8 °C 15.5 °C 1011.7 hPa ENE 5.3 km/h 8 km/h 92 % 0 mm
14:27 16.8 °C 15.3 °C 1011.7 hPa NE 5.8 km/h 8 km/h 91 % 0 mm
14:32 16.9 °C 15.6 °C 1011.4 hPa ENE 3.7 km/h 5.6 km/h 92 % 0 mm
14:37 16.9 °C 15.6 °C 1011.4 hPa ENE 3.5 km/h 7.4 km/h 92 % 0 mm
14:42 17.1 °C 15.7 °C 1011.4 hPa ENE 2.6 km/h 5.6 km/h 92 % 0 mm
14:47 17.2 °C 15.9 °C 1011.4 hPa ENE 3.9 km/h 6.4 km/h 92 % 0 mm
14:53 17.3 °C 15.6 °C 1011.4 hPa NE 0.6 km/h 5.6 km/h 90 % 0 mm
14:58 17.3 °C 15.7 °C 1011.4 hPa NE 1.4 km/h 3.7 km/h 90 % 0 mm
15:03 17.4 °C 15.9 °C 1011.1 hPa ENE 1.1 km/h 5.6 km/h 91 % 0 mm
15:08 17.3 °C 15.7 °C 1011.1 hPa ENE 6.1 km/h 11.1 km/h 90 % 0 mm
15:13 17.4 °C 15.7 °C 1011.1 hPa ENE 0.6 km/h 4.8 km/h 90 % 0 mm
15:18 17.6 °C 16.1 °C 1011.1 hPa ESE 2.4 km/h 5.6 km/h 91 % 0 mm
15:23 17.8 °C 16.2 °C 1011.1 hPa SE 1 km/h 5.6 km/h 90 % 0 mm
15:24 17.9 °C 16.1 °C 1011.1 hPa SSE 4.2 km/h 5.6 km/h 89 % 0 mm
15:30 18.2 °C 16.2 °C 1011.1 hPa SSE 5.5 km/h 8 km/h 88 % 0 mm
15:35 18.5 °C 16.3 °C 1011.1 hPa SSW 5.5 km/h 11.3 km/h 87 % 0 mm
15:40 18.7 °C 16.2 °C 1011.1 hPa SSE 4.5 km/h 9.3 km/h 85 % 0 mm
15:45 18.9 °C 16 °C 1011.1 hPa South 4.8 km/h 14.8 km/h 83 % 0 mm
15:49 19.1 °C 16.2 °C 1011.1 hPa SSE 3.5 km/h 9.7 km/h 83 % 0 mm
15:54 19.2 °C 16.1 °C 1011.1 hPa SSW 4.7 km/h 7.4 km/h 82 % 0 mm
15:59 19.3 °C 16.2 °C 1010.7 hPa SW 1.9 km/h 5.6 km/h 82 % 0 mm
16:04 19.3 °C 15.7 °C 1011.1 hPa SE 6.3 km/h 16.7 km/h 80 % 0 mm
16:09 19.2 °C 15.7 °C 1011.1 hPa SE 4.8 km/h 11.1 km/h 80 % 0 mm
16:14 19.2 °C 15.7 °C 1010.7 hPa South 6.8 km/h 13 km/h 80 % 0 mm
16:19 19.2 °C 15.9 °C 1010.7 hPa SSW 1.1 km/h 5.6 km/h 81 % 0 mm
16:25 19.3 °C 15.9 °C 1010.7 hPa SSW 3.1 km/h 13 km/h 81 % 0 mm
16:30 19.3 °C 15.7 °C 1010.7 hPa SSE 6.1 km/h 13 km/h 80 % 0 mm
16:35 19.2 °C 15.9 °C 1010.7 hPa SSE 5 km/h 7.4 km/h 81 % 0 mm
16:40 19.1 °C 15.6 °C 1010.7 hPa SSE 6.6 km/h 14.8 km/h 80 % 0 mm
16:45 18.9 °C 15.4 °C 1010.7 hPa South 3.9 km/h 7.4 km/h 80 % 0 mm
16:50 18.9 °C 15.2 °C 1010.7 hPa South 6.4 km/h 11.1 km/h 79 % 0 mm
16:55 18.8 °C 15.3 °C 1010.7 hPa South 3.5 km/h 8 km/h 80 % 0 mm
17:00 18.7 °C 15.2 °C 1010.4 hPa SSE 11.1 km/h 17.7 km/h 80 % 0 mm
17:05 18.6 °C 15.1 °C 1010.4 hPa ESE 9.3 km/h 18.5 km/h 80 % 0 mm
17:10 18.6 °C 15.3 °C 1010.7 hPa ESE 8.9 km/h 12.9 km/h 81 % 0 mm
17:16 18.6 °C 15.1 °C 1010.7 hPa SSE 9.7 km/h 19.3 km/h 80 % 0 mm
17:21 18.4 °C 15.1 °C 1010.7 hPa SSE 4 km/h 13 km/h 81 % 0 mm
17:26 18.4 °C 15.1 °C 1010.7 hPa Calm   8 km/h 81 % 0 mm
17:31 18.4 °C 15.1 °C 1011.1 hPa SSE 8 km/h 12.9 km/h 81 % 0 mm
17:36 18.3 °C 14.9 °C 1011.1 hPa SSE 8 km/h 16.1 km/h 81 % 0 mm
17:41 18.2 °C 15.1 °C 1011.1 hPa SE 9.7 km/h 19.3 km/h 82 % 0 mm
17:46 18.2 °C 15.1 °C 1011.1 hPa SSE 1.6 km/h 12.9 km/h 82 % 0 mm
17:51 18.2 °C 15.3 °C 1011.1 hPa South 3.2 km/h 11.3 km/h 83 % 0 mm
17:56 18.2 °C 15.2 °C 1011.4 hPa SSW 8 km/h 12.9 km/h 83 % 0 mm
18:01 17.9 °C 14.8 °C 1011.4 hPa South 8.2 km/h 14.8 km/h 82 % 0 mm
18:06 17.7 °C 14.9 °C 1011.4 hPa SSE 3.2 km/h 22.5 km/h 84 % 0 mm
18:11 17.4 °C 14.7 °C 1011.4 hPa SSE 8 km/h 14.5 km/h 84 % 0 mm
18:16 17.3 °C 14.8 °C 1011.4 hPa SSE 4.8 km/h 14.5 km/h 85 % 0 mm
18:21 17.3 °C 14.9 °C 1011.4 hPa SSE 1.6 km/h 9.7 km/h 86 % 0 mm
18:26 17.2 °C 14.8 °C 1011.4 hPa SSE 1.6 km/h 9.7 km/h 86 % 0 mm
18:31 17.2 °C 14.8 °C 1011.4 hPa SSE 3.2 km/h 19.3 km/h 86 % 0 mm
18:36 17.1 °C 14.9 °C 1011.4 hPa SSE 4.8 km/h 12.9 km/h 87 % 0 mm
18:41 17.1 °C 14.9 °C 1011.4 hPa SSE 4.8 km/h 14.5 km/h 87 % 0 mm
18:46 17 °C 14.8 °C 1011.7 hPa SSE 8 km/h 14.5 km/h 87 % 0 mm
18:51 16.9 °C 14.8 °C 1011.7 hPa SSE 5 km/h 9.7 km/h 87 % 0 mm
18:56 16.9 °C 14.9 °C 1011.7 hPa SSE 1.6 km/h 6.4 km/h 88 % 0 mm
19:01 16.8 °C 14.8 °C 1011.4 hPa SSE 4 km/h 6.4 km/h 88 % 0 mm
19:06 16.8 °C 14.8 °C 1011.4 hPa SSE 2.7 km/h 9.3 km/h 88 % 0 mm
19:11 16.7 °C 14.7 °C 1011.4 hPa SSE 4 km/h 5.6 km/h 88 % 0 mm
19:15 16.7 °C 14.7 °C 1011.4 hPa SSE 4.3 km/h 8 km/h 88 % 0 mm
19:20 16.6 °C 14.7 °C 1011.1 hPa South 2.3 km/h 9.3 km/h 89 % 0 mm
19:25 16.5 °C 14.7 °C 1011.1 hPa SE 3.5 km/h 7.4 km/h 89 % 0 mm
19:31 16.5 °C 14.7 °C 1011.4 hPa Calm   6.4 km/h 89 % 0 mm
19:36 16.4 °C 14.6 °C 1011.4 hPa SSE 3.4 km/h 4.8 km/h 89 % 0 mm
19:41 16.4 °C 14.6 °C 1011.4 hPa SSE 1.6 km/h 11.3 km/h 89 % 0 mm
19:46 16.4 °C 14.7 °C 1011.4 hPa South 4.8 km/h 9.7 km/h 90 % 0 mm
19:51 16.3 °C 14.7 °C 1011.4 hPa SE 4.7 km/h 7.4 km/h 90 % 0 mm
19:56 16.3 °C 14.7 °C 1011.4 hPa SE 1.8 km/h 5.6 km/h 90 % 0 mm
20:01 16.3 °C 14.7 °C 1011.4 hPa SSE 3.1 km/h 4.8 km/h 90 % 0 mm
20:06 16.3 °C 14.6 °C 1011.4 hPa SSE 2.9 km/h 13 km/h 90 % 0 mm
20:11 16.3 °C 14.6 °C 1011.4 hPa East 1.3 km/h 5.6 km/h 90 % 0 mm
20:16 16.2 °C 14.6 °C 1011.4 hPa SE 2.6 km/h 5.6 km/h 90 % 0 mm
20:21 16.2 °C 14.7 °C 1011.1 hPa ESE 1.3 km/h 5.6 km/h 91 % 0 mm
20:26 16.2 °C 14.7 °C 1011.1 hPa SE 0.3 km/h 5.6 km/h 91 % 0 mm
20:31 16.2 °C 14.7 °C 1011.1 hPa East 2.1 km/h 5.6 km/h 91 % 0 mm
20:36 16.1 °C 14.8 °C 1011.1 hPa SE 4.8 km/h 7.4 km/h 92 % 0 mm
20:41 16.1 °C 14.8 °C 1011.1 hPa SE 1.6 km/h 13 km/h 92 % 0 mm
20:46 16.1 °C 14.9 °C 1011.1 hPa SE 0.3 km/h 3.7 km/h 93 % 0 mm
20:51 16.1 °C 14.9 °C 1011.4 hPa ESE 0.5 km/h 5.6 km/h 93 % 0 mm
20:57 16.1 °C 14.9 °C 1011.4 hPa SE 0.8 km/h 3.7 km/h 93 % 0 mm
21:02 16.1 °C 14.9 °C 1011.4 hPa East 0.2 km/h 3.7 km/h 93 % 0 mm
21:07 16.1 °C 14.9 °C 1011.4 hPa SE 1 km/h 3.7 km/h 93 % 0 mm
21:12 16.1 °C 15.1 °C 1011.4 hPa SE 0.3 km/h 1.9 km/h 94 % 0 mm
21:17 16.1 °C 15.1 °C 1011.4 hPa SE 1.9 km/h 5.6 km/h 94 % 0 mm
21:22 16.1 °C 15.1 °C 1011.4 hPa ESE 2.4 km/h 5.6 km/h 94 % 0 mm
21:27 16.1 °C 15.1 °C 1011.4 hPa ESE 3.4 km/h 5.6 km/h 94 % 0 mm
21:32 16.1 °C 15.3 °C 1011.4 hPa ESE 7.9 km/h 16.7 km/h 95 % 0 mm
21:37 16.1 °C 15.3 °C 1011.4 hPa SE 0.8 km/h 3.2 km/h 95 % 0 mm
21:42 16.1 °C 15.3 °C 1011.4 hPa SSE 1.3 km/h 5.6 km/h 95 % 0 mm
21:47 16.1 °C 15.3 °C 1011.7 hPa SSE 0.8 km/h 3.7 km/h 95 % 0 mm
21:52 16.1 °C 15.3 °C 1011.7 hPa SSE 1 km/h 5.6 km/h 95 % 0 mm
21:57 16.1 °C 15.5 °C 1011.7 hPa SSW 1.6 km/h 3.7 km/h 96 % 0 mm
22:02 16.1 °C 15.3 °C 1011.7 hPa South 3.4 km/h 5.6 km/h 95 % 0 mm
22:07 16.1 °C 15.4 °C 1011.7 hPa SSE 4 km/h 9.3 km/h 96 % 0 mm
22:13 16.1 °C 15.4 °C 1011.7 hPa SSW 0.5 km/h 1.6 km/h 96 % 0 mm
22:18 16.1 °C 15.4 °C 1011.7 hPa Calm     96 % 0 mm
22:23 16.1 °C 15.4 °C 1011.7 hPa SE 0.2 km/h 1.9 km/h 96 % 0 mm
22:28 16 °C 15.4 °C 1011.7 hPa SSE 3.4 km/h 5.6 km/h 96 % 0 mm
22:33 15.9 °C 15.3 °C 1011.7 hPa SSE 5.3 km/h 9.3 km/h 96 % 0 mm
22:38 15.9 °C 15.3 °C 1011.4 hPa SE 5.8 km/h 7.4 km/h 96 % 0 mm
22:43 15.8 °C 15.2 °C 1011.4 hPa Calm     96 % 0 mm
22:48 15.8 °C 15.2 °C 1011.4 hPa SE 1.4 km/h 5.6 km/h 96 % 0 mm
22:53 15.8 °C 15.2 °C 1011.4 hPa ESE 0.6 km/h 3.7 km/h 96 % 0 mm
22:54 15.8 °C 15.2 °C 1011.4 hPa ESE 0.3 km/h 1.9 km/h 96 % 0 mm
23:00 15.7 °C 15.1 °C 1011.4 hPa SSE 0.5 km/h   96 % 0 mm
23:05 15.7 °C 15.1 °C 1011.4 hPa Calm   1.9 km/h 96 % 0 mm
23:10 15.6 °C 14.8 °C 1011.4 hPa SE 2.3 km/h 7.4 km/h 95 % 0 mm
23:15 15.6 °C 14.8 °C 1011.4 hPa Calm   3.7 km/h 95 % 0 mm
23:20 15.5 °C 14.9 °C 1011.4 hPa Calm   3.7 km/h 96 % 0 mm
23:25 15.5 °C 14.9 °C 1011.4 hPa Calm     96 % 0 mm
23:30 15.4 °C 14.8 °C 1011.4 hPa SSE 0.5 km/h 1.9 km/h 96 % 0 mm
23:35 15.4 °C 14.8 °C 1011.1 hPa SE 1.1 km/h 3.7 km/h 96 % 0 mm
23:40 15.3 °C 14.6 °C 1011.1 hPa SE 0.6 km/h 4.8 km/h 95 % 0 mm
23:45 15.3 °C 14.7 °C 1011.1 hPa Calm     96 % 0 mm
23:50 15.3 °C 14.7 °C 1011.1 hPa SE 1.4 km/h 1.9 km/h 96 % 0 mm
23:55 15.3 °C 14.7 °C 1011.1 hPa SSE 1.4 km/h 1.6 km/h 96 % 0 mm
Crab Meadow Weather
Compliments of Weather Underground - 3 mb

Script developed by  Jim McMurry - jmcmurry@mwt.net Adapted for the template by  Wim van der Kuil - Leuven-Template.eu

Astronomy: The light of the Sun takes 8 minutes to reach Earth.